Powrót do katalogu

OSCAR 31

AktywnyKrótkofalarstwoPO
NORAD 19420·PAYLOAD·🇺🇸 United States

Wystrzelony Aug 25, 1988 z Vandenberg Space Force Base

Loading…

Następne Przeloty (najbliższe 24 godziny)

TLE

ŚwieżeSource: Space-Track

Epoka: Sep 14, 2026, 06:51 UTC

1 19420U 88074B   26257.28574696  .00000063  00000-0  92008-4 0  9994
2 19420  90.0504  21.7211 0094749 173.3113 214.0451 13.42621267863482

Śledź OSCAR 31 w czasie rzeczywistym z AllMySat

Download on the App Store